SUR4140 SAWC-SAEZ

Flight info

Callsign SUR4140
Flight time 2h 40m
Altitude 35000
Route BOKUK UW48 CRV UP664 TRE UT693 BCA UW22 VALOS
Aircraft B738/M-V/N

Departure

Time 2026-05-01 11:21
Airport El Calafate - Commander Armando Tola International Airport (SAWC)

Arrival

Time 2026-05-01 14:01
Airport Ezeiza International Airport - Ministro Pistarini (SAEZ)
Time Latitude Longitude Altitude Speed Heading
2026-05-01 11:10 -50.28326 -72.05315 640 ft 0 kts 232°
2026-05-01 11:12 -50.28324 -72.05312 640 ft 2 kts 232°
2026-05-01 11:12 -50.28315 -72.05293 641 ft 2 kts 232°
2026-05-01 11:12 -50.28305 -72.05273 642 ft 2 kts 213°
2026-05-01 11:12 -50.28289 -72.05266 642 ft 2 kts 188°
2026-05-01 11:13 -50.28273 -72.05267 642 ft 2 kts 156°
2026-05-01 11:13 -50.28260 -72.05262 642 ft 2 kts 257°
2026-05-01 11:13 -50.28260 -72.05261 642 ft 0 kts 257°
2026-05-01 11:16 -50.28260 -72.05268 641 ft 4 kts 261°
2026-05-01 11:17 -50.28243 -72.05372 640 ft 16 kts 311°
2026-05-01 11:17 -50.28111 -72.05415 641 ft 23 kts 356°
2026-05-01 11:17 -50.28017 -72.05272 642 ft 22 kts 83°
2026-05-01 11:17 -50.27999 -72.05039 642 ft 21 kts 83°
2026-05-01 11:18 -50.27988 -72.04811 643 ft 21 kts 85°
2026-05-01 11:18 -50.27976 -72.04599 643 ft 20 kts 84°
2026-05-01 11:18 -50.27962 -72.04384 642 ft 20 kts 84°
2026-05-01 11:18 -50.27947 -72.04139 640 ft 24 kts 84°
2026-05-01 11:19 -50.27932 -72.03889 639 ft 23 kts 85°
2026-05-01 11:19 -50.27956 -72.03659 640 ft 22 kts 94°
2026-05-01 11:19 -50.27919 -72.03601 643 ft 5 kts 349°
2026-05-01 11:19 -50.27903 -72.03646 641 ft 5 kts 265°
2026-05-01 11:20 -50.27919 -72.03698 643 ft 6 kts 251°
2026-05-01 11:20 -50.27942 -72.03978 641 ft 66 kts 264°
2026-05-01 11:20 -50.28014 -72.05194 642 ft 156 kts 265°
2026-05-01 11:20 -50.28134 -72.07217 827 ft 205 kts 265°
2026-05-01 11:21 -50.28265 -72.09490 1579 ft 218 kts 265°
2026-05-01 11:21 -50.28405 -72.11920 2359 ft 228 kts 265°
2026-05-01 11:21 -50.28548 -72.14411 3248 ft 232 kts 265°
2026-05-01 11:21 -50.28693 -72.16926 4174 ft 232 kts 265°
2026-05-01 11:22 -50.28835 -72.19450 5048 ft 234 kts 265°
2026-05-01 11:22 -50.28975 -72.22007 5842 ft 238 kts 265°
2026-05-01 11:22 -50.29123 -72.24620 6546 ft 245 kts 265°
2026-05-01 11:22 -50.29283 -72.27278 7144 ft 252 kts 264°
2026-05-01 11:23 -50.29456 -72.30034 7766 ft 259 kts 264°
2026-05-01 11:23 -50.29555 -72.32902 8161 ft 277 kts 277°
2026-05-01 11:23 -50.28825 -72.35739 8962 ft 283 kts 309°
2026-05-01 11:23 -50.27304 -72.37580 9838 ft 285 kts 338°
2026-05-01 11:24 -50.25335 -72.38044 10515 ft 297 kts
2026-05-01 11:24 -50.23409 -72.36978 10715 ft 323 kts 34°
2026-05-01 11:24 -50.19828 -72.31975 11351 ft 362 kts 44°
2026-05-01 11:25 -50.18014 -72.29199 12050 ft 368 kts 44°
2026-05-01 11:25 -50.14170 -72.23830 13555 ft 375 kts 40°
2026-05-01 11:25 -50.12160 -72.21196 14230 ft 380 kts 40°
2026-05-01 11:26 -50.10123 -72.18530 14895 ft 385 kts 40°
2026-05-01 11:26 -50.06093 -72.13202 16269 ft 390 kts 40°
2026-05-01 11:26 -50.04023 -72.10443 16938 ft 393 kts 40°
2026-05-01 11:27 -50.01941 -72.07665 17556 ft 397 kts 40°
2026-05-01 11:27 -49.99871 -72.04903 18104 ft 402 kts 40°
2026-05-01 11:27 -49.97747 -72.02071 18688 ft 406 kts 40°
2026-05-01 11:27 -49.95595 -71.99205 19273 ft 409 kts 40°
2026-05-01 11:28 -49.93422 -71.96317 19829 ft 412 kts 40°
2026-05-01 11:28 -49.91241 -71.93412 20379 ft 415 kts 40°
2026-05-01 11:28 -49.89055 -71.90448 20933 ft 419 kts 41°
2026-05-01 11:29 -49.84661 -71.84423 21912 ft 425 kts 41°
2026-05-01 11:29 -49.82434 -71.81372 22388 ft 428 kts 41°
2026-05-01 11:29 -49.77924 -71.75219 23227 ft 436 kts 41°
2026-05-01 11:30 -49.75643 -71.72120 23741 ft 437 kts 41°
2026-05-01 11:30 -49.73358 -71.69020 24148 ft 440 kts 41°
2026-05-01 11:30 -49.71045 -71.65887 24539 ft 443 kts 41°
2026-05-01 11:30 -49.68722 -71.62745 24943 ft 446 kts 41°
2026-05-01 11:31 -49.66383 -71.59584 25346 ft 448 kts 41°
2026-05-01 11:31 -49.64030 -71.56409 25741 ft 450 kts 41°
2026-05-01 11:31 -49.61672 -71.53230 26094 ft 452 kts 41°
2026-05-01 11:31 -49.59291 -71.50024 26434 ft 455 kts 41°
2026-05-01 11:32 -49.56899 -71.46809 26787 ft 457 kts 41°
2026-05-01 11:32 -49.54540 -71.43688 27097 ft 459 kts 39°
2026-05-01 11:32 -49.52008 -71.40682 27401 ft 462 kts 36°
2026-05-01 11:32 -49.49384 -71.37801 27700 ft 464 kts 34°
2026-05-01 11:33 -49.46721 -71.34957 27986 ft 466 kts 34°
2026-05-01 11:33 -49.44053 -71.32109 28287 ft 468 kts 34°
2026-05-01 11:33 -49.41376 -71.29222 28560 ft 471 kts 35°
2026-05-01 11:33 -49.38772 -71.26383 28906 ft 470 kts 35°
2026-05-01 11:34 -49.36109 -71.23461 29343 ft 468 kts 35°
2026-05-01 11:34 -49.33478 -71.20564 29710 ft 468 kts 36°
2026-05-01 11:34 -49.30826 -71.17644 30040 ft 469 kts 35°
2026-05-01 11:34 -49.28215 -71.14774 30461 ft 467 kts 35°
2026-05-01 11:35 -49.25554 -71.11856 30905 ft 464 kts 35°
2026-05-01 11:35 -49.22967 -71.09025 31267 ft 464 kts 35°
2026-05-01 11:35 -49.20305 -71.06116 31623 ft 463 kts 35°
2026-05-01 11:35 -49.17726 -71.03301 31991 ft 462 kts 35°
2026-05-01 11:36 -49.15109 -71.00448 32353 ft 461 kts 35°
2026-05-01 11:36 -49.12666 -70.97789 32664 ft 461 kts 35°
2026-05-01 11:36 -49.10049 -70.94945 32964 ft 461 kts 35°
2026-05-01 11:36 -49.07440 -70.92113 33261 ft 462 kts 35°
2026-05-01 11:37 -49.04815 -70.89268 33512 ft 463 kts 35°
2026-05-01 11:37 -49.02185 -70.86419 33769 ft 463 kts 35°
2026-05-01 11:37 -48.99563 -70.83581 34122 ft 462 kts 35°
2026-05-01 11:37 -48.96945 -70.80751 34491 ft 460 kts 35°
2026-05-01 11:38 -48.94345 -70.77944 34799 ft 459 kts 35°
2026-05-01 11:38 -48.91734 -70.75128 35011 ft 460 kts 35°
2026-05-01 11:38 -48.89124 -70.72317 35003 ft 460 kts 35°
2026-05-01 11:39 -48.83983 -70.66792 34993 ft 456 kts 35°
2026-05-01 11:39 -48.78815 -70.61249 34997 ft 454 kts 35°
2026-05-01 11:40 -48.73667 -70.55742 34998 ft 452 kts 35°
2026-05-01 11:40 -48.68888 -70.49569 34997 ft 452 kts 47°
2026-05-01 11:41 -48.64975 -70.42129 35003 ft 453 kts 54°
2026-05-01 11:41 -48.61257 -70.34408 35004 ft 455 kts 53°
2026-05-01 11:42 -48.57328 -70.26886 35000 ft 457 kts 50°
2026-05-01 11:42 -48.53268 -70.19451 35005 ft 460 kts 50°
2026-05-01 11:43 -48.49222 -70.12032 35003 ft 462 kts 50°
2026-05-01 11:43 -48.45110 -70.04563 34992 ft 464 kts 47°
2026-05-01 11:44 -48.40170 -69.98401 35014 ft 463 kts 32°
2026-05-01 11:44 -48.37416 -69.95905 35010 ft 463 kts 30°
2026-05-01 11:44 -48.31958 -69.90747 34995 ft 463 kts 34°
2026-05-01 11:45 -48.26763 -69.85066 34996 ft 461 kts 36°
2026-05-01 11:45 -48.21588 -69.79384 34994 ft 460 kts 36°
2026-05-01 11:46 -48.16377 -69.73834 35004 ft 459 kts 35°
2026-05-01 11:46 -48.11149 -69.68363 34997 ft 458 kts 34°
2026-05-01 11:47 -48.05921 -69.62924 34996 ft 458 kts 34°
2026-05-01 11:47 -48.00685 -69.57486 34999 ft 458 kts 34°
2026-05-01 11:48 -47.95457 -69.52065 35001 ft 458 kts 34°
2026-05-01 11:48 -47.90226 -69.46652 34995 ft 458 kts 34°
2026-05-01 11:49 -47.84989 -69.41247 35010 ft 458 kts 34°
2026-05-01 11:49 -47.79736 -69.35839 35002 ft 459 kts 34°
2026-05-01 11:50 -47.74486 -69.30447 35000 ft 459 kts 34°
2026-05-01 11:50 -47.69227 -69.25061 34999 ft 459 kts 34°
2026-05-01 11:51 -47.63963 -69.19681 34997 ft 459 kts 34°
2026-05-01 11:51 -47.58695 -69.14313 34997 ft 460 kts 34°
2026-05-01 11:52 -47.53426 -69.08955 35001 ft 460 kts 34°
2026-05-01 11:52 -47.48149 -69.03603 35001 ft 460 kts 34°
2026-05-01 11:53 -47.42861 -68.98253 35004 ft 460 kts 34°
2026-05-01 11:53 -47.38462 -68.93813 35005 ft 461 kts 34°
2026-05-01 11:54 -47.33172 -68.88485 34998 ft 461 kts 34°
2026-05-01 11:54 -47.27015 -68.82302 35001 ft 461 kts 34°
2026-05-01 11:55 -47.21714 -68.76991 35007 ft 460 kts 34°
2026-05-01 11:55 -47.16422 -68.71703 35001 ft 460 kts 34°
2026-05-01 11:56 -47.12018 -68.67312 34996 ft 459 kts 34°
2026-05-01 11:56 -47.06737 -68.62058 35007 ft 458 kts 34°
2026-05-01 11:57 -47.01471 -68.56832 35005 ft 457 kts 34°
2026-05-01 11:57 -46.96207 -68.51621 34997 ft 456 kts 34°
2026-05-01 11:58 -46.90957 -68.46436 34996 ft 455 kts 34°
2026-05-01 11:59 -46.83088 -68.38687 35001 ft 454 kts 34°
2026-05-01 11:59 -46.77852 -68.33547 34996 ft 454 kts 33°
2026-05-01 12:00 -46.69989 -68.25851 35002 ft 454 kts 33°
2026-05-01 12:01 -46.62117 -68.18173 35003 ft 454 kts 33°
2026-05-01 12:01 -46.56861 -68.13062 34998 ft 455 kts 33°
2026-05-01 12:02 -46.51595 -68.07954 35003 ft 456 kts 33°
2026-05-01 12:02 -46.46316 -68.02845 35008 ft 456 kts 33°
2026-05-01 12:03 -46.41032 -67.97742 35000 ft 457 kts 33°
2026-05-01 12:03 -46.35735 -67.92640 35008 ft 457 kts 33°
2026-05-01 12:04 -46.30432 -67.87544 35005 ft 457 kts 33°
2026-05-01 12:04 -46.25141 -67.82472 34998 ft 457 kts 33°
2026-05-01 12:05 -46.19971 -67.77526 35007 ft 457 kts 33°
2026-05-01 12:05 -46.12122 -67.70041 35008 ft 456 kts 33°
2026-05-01 12:06 -46.06833 -67.65011 34995 ft 455 kts 33°
2026-05-01 12:06 -46.01545 -67.59993 34994 ft 455 kts 33°
2026-05-01 12:07 -45.96261 -67.54991 34997 ft 454 kts 33°
2026-05-01 12:07 -45.90982 -67.50006 35001 ft 454 kts 33°
2026-05-01 12:08 -45.85708 -67.45035 35000 ft 454 kts 33°
2026-05-01 12:08 -45.80432 -67.40073 35001 ft 453 kts 33°
2026-05-01 12:09 -45.75144 -67.35160 35009 ft 453 kts 32°
2026-05-01 12:09 -45.69757 -67.30481 35000 ft 453 kts 31°
2026-05-01 12:10 -45.61634 -67.23540 35005 ft 453 kts 31°
2026-05-01 12:11 -45.53542 -67.16569 35005 ft 453 kts 31°
2026-05-01 12:11 -45.48142 -67.11916 34996 ft 454 kts 31°
2026-05-01 12:12 -45.42729 -67.07264 34997 ft 454 kts 31°
2026-05-01 12:12 -45.37316 -67.02624 34999 ft 454 kts 31°
2026-05-01 12:13 -45.31939 -66.98027 35007 ft 454 kts 31°
2026-05-01 12:13 -45.26526 -66.93408 35009 ft 454 kts 31°
2026-05-01 12:14 -45.21107 -66.88795 34997 ft 455 kts 31°
2026-05-01 12:14 -45.15680 -66.84185 35006 ft 455 kts 31°
2026-05-01 12:15 -45.10253 -66.79585 34999 ft 455 kts 31°
2026-05-01 12:15 -45.04819 -66.74988 34995 ft 455 kts 31°
2026-05-01 12:16 -44.99381 -66.70398 34999 ft 455 kts 31°
2026-05-01 12:16 -44.93931 -66.65813 34995 ft 455 kts 30°
2026-05-01 12:17 -44.88489 -66.61244 34999 ft 456 kts 30°
2026-05-01 12:17 -44.83042 -66.56680 35005 ft 456 kts 30°
2026-05-01 12:18 -44.77591 -66.52121 35001 ft 456 kts 30°
2026-05-01 12:18 -44.72128 -66.47562 34994 ft 456 kts 30°
2026-05-01 12:19 -44.66668 -66.43015 34999 ft 456 kts 30°
2026-05-01 12:19 -44.61198 -66.38471 34998 ft 457 kts 30°
2026-05-01 12:20 -44.55726 -66.33934 34998 ft 457 kts 30°
2026-05-01 12:20 -44.50250 -66.29404 34996 ft 457 kts 30°
2026-05-01 12:21 -44.44797 -66.24904 34999 ft 457 kts 30°
2026-05-01 12:21 -44.39315 -66.20388 35000 ft 457 kts 30°
2026-05-01 12:22 -44.33831 -66.15882 35001 ft 457 kts 30°
2026-05-01 12:22 -44.28348 -66.11386 34996 ft 457 kts 30°
2026-05-01 12:23 -44.22864 -66.06899 35005 ft 457 kts 30°
2026-05-01 12:23 -44.17375 -66.02418 34998 ft 457 kts 30°
2026-05-01 12:24 -44.11889 -65.97948 35002 ft 456 kts 30°
2026-05-01 12:24 -44.06416 -65.93498 35000 ft 456 kts 30°
2026-05-01 12:25 -43.98193 -65.86831 35004 ft 456 kts 30°
2026-05-01 12:26 -43.92714 -65.82407 34998 ft 456 kts 30°
2026-05-01 12:26 -43.84506 -65.75796 34996 ft 456 kts 30°
2026-05-01 12:27 -43.76285 -65.69193 35003 ft 455 kts 30°
2026-05-01 12:28 -43.68059 -65.62606 34996 ft 455 kts 30°
2026-05-01 12:29 -43.59827 -65.56036 35006 ft 455 kts 30°
2026-05-01 12:29 -43.51598 -65.49488 35003 ft 455 kts 30°
2026-05-01 12:30 -43.43368 -65.42961 34997 ft 455 kts 30°
2026-05-01 12:31 -43.37905 -65.38639 34999 ft 455 kts 30°
2026-05-01 12:31 -43.32414 -65.34304 35001 ft 455 kts 30°
2026-05-01 12:32 -43.26926 -65.29980 35005 ft 455 kts 30°
2026-05-01 12:32 -43.18801 -65.23611 35007 ft 454 kts 29°
2026-05-01 12:33 -43.13248 -65.19483 35004 ft 454 kts 28°
2026-05-01 12:33 -43.07675 -65.15419 34995 ft 454 kts 28°
2026-05-01 12:34 -43.02099 -65.11340 35007 ft 454 kts 28°
2026-05-01 12:34 -42.96542 -65.07260 35005 ft 454 kts 28°
2026-05-01 12:35 -42.90974 -65.03175 34995 ft 454 kts 28°
2026-05-01 12:35 -42.85419 -64.99107 34998 ft 454 kts 28°
2026-05-01 12:36 -42.79845 -64.95036 34998 ft 454 kts 28°
2026-05-01 12:36 -42.74281 -64.90981 35004 ft 454 kts 28°
2026-05-01 12:37 -42.68712 -64.86930 35004 ft 454 kts 28°
2026-05-01 12:37 -42.63133 -64.82880 34996 ft 454 kts 28°
2026-05-01 12:38 -42.57561 -64.78844 34996 ft 454 kts 28°
2026-05-01 12:38 -42.51987 -64.74814 34996 ft 454 kts 28°
2026-05-01 12:39 -42.46403 -64.70784 34999 ft 454 kts 28°
2026-05-01 12:39 -42.40834 -64.66772 35004 ft 454 kts 28°
2026-05-01 12:40 -42.35281 -64.62812 34995 ft 454 kts 27°
2026-05-01 12:40 -42.29642 -64.58933 35005 ft 454 kts 26°
2026-05-01 12:41 -42.24001 -64.55087 34997 ft 454 kts 26°
2026-05-01 12:41 -42.19267 -64.51852 35003 ft 454 kts 26°
2026-05-01 12:42 -42.13669 -64.48022 34999 ft 454 kts 26°
2026-05-01 12:42 -42.08080 -64.44200 35006 ft 454 kts 26°
2026-05-01 12:43 -42.02438 -64.40350 35006 ft 454 kts 26°
2026-05-01 12:43 -41.96808 -64.36517 35006 ft 454 kts 26°
2026-05-01 12:44 -41.91175 -64.32689 34998 ft 454 kts 26°
2026-05-01 12:45 -41.79898 -64.25050 34999 ft 454 kts 26°
2026-05-01 12:45 -41.74262 -64.21243 35004 ft 454 kts 26°
2026-05-01 12:46 -41.68629 -64.17446 35001 ft 454 kts 26°
2026-05-01 12:46 -41.62990 -64.13652 35008 ft 454 kts 26°
2026-05-01 12:47 -41.57352 -64.09867 34997 ft 454 kts 26°
2026-05-01 12:47 -41.51710 -64.06086 34998 ft 454 kts 26°
2026-05-01 12:48 -41.46071 -64.02314 35005 ft 454 kts 26°
2026-05-01 12:48 -41.40422 -63.98543 34997 ft 454 kts 26°
2026-05-01 12:49 -41.34778 -63.94783 35007 ft 454 kts 26°
2026-05-01 12:49 -41.29129 -63.91027 35000 ft 454 kts 26°
2026-05-01 12:50 -41.23483 -63.87280 35004 ft 454 kts 26°
2026-05-01 12:50 -41.17826 -63.83533 35004 ft 454 kts 26°
2026-05-01 12:51 -41.12175 -63.79797 34997 ft 454 kts 26°
2026-05-01 12:52 -41.03690 -63.74201 34997 ft 454 kts 26°
2026-05-01 12:52 -40.95200 -63.68616 35004 ft 454 kts 26°
2026-05-01 12:53 -40.86762 -63.62930 35001 ft 454 kts 28°
2026-05-01 12:54 -40.81225 -63.58882 35007 ft 454 kts 29°
2026-05-01 12:54 -40.72959 -63.52847 34998 ft 454 kts 28°
2026-05-01 12:55 -40.64635 -63.46861 35005 ft 454 kts 28°
2026-05-01 12:56 -40.59085 -63.42889 35005 ft 454 kts 28°
2026-05-01 12:56 -40.53530 -63.38919 35000 ft 454 kts 28°
2026-05-01 12:57 -40.47977 -63.34957 35002 ft 454 kts 28°
2026-05-01 12:57 -40.39645 -63.29025 35000 ft 454 kts 28°
2026-05-01 12:58 -40.34092 -63.25081 35009 ft 454 kts 28°
2026-05-01 12:59 -40.25791 -63.19200 35002 ft 454 kts 28°
2026-05-01 12:59 -40.17456 -63.13311 35011 ft 454 kts 28°
2026-05-01 13:00 -40.09113 -63.07433 34999 ft 454 kts 28°
2026-05-01 13:01 -40.00770 -63.01571 35003 ft 454 kts 28°
2026-05-01 13:02 -39.92423 -62.95723 35001 ft 454 kts 28°
2026-05-01 13:07 -39.30924 -62.53823 35001 ft 454 kts 26°
2026-05-01 13:08 -39.25286 -62.50160 35006 ft 454 kts 26°
2026-05-01 13:08 -39.19648 -62.46500 34996 ft 454 kts 26°
2026-05-01 13:09 -39.14009 -62.42847 35001 ft 454 kts 26°
2026-05-01 13:09 -39.08404 -62.39223 35003 ft 454 kts 26°
2026-05-01 13:10 -39.02762 -62.35582 35000 ft 454 kts 26°
2026-05-01 13:10 -38.97120 -62.31948 34996 ft 454 kts 26°
2026-05-01 13:11 -38.91467 -62.28312 34996 ft 454 kts 26°
2026-05-01 13:11 -38.85860 -62.24713 35005 ft 454 kts 26°
2026-05-01 13:12 -38.80216 -62.21095 35002 ft 454 kts 26°
2026-05-01 13:12 -38.74531 -62.17458 35007 ft 454 kts 26°
2026-05-01 13:13 -38.69026 -62.13619 35001 ft 454 kts 32°
2026-05-01 13:13 -38.63828 -62.09030 35000 ft 454 kts 37°
2026-05-01 13:14 -38.58818 -62.04111 35005 ft 454 kts 37°
2026-05-01 13:14 -38.53736 -61.99287 35007 ft 455 kts 36°
2026-05-01 13:15 -38.48590 -61.94592 35002 ft 455 kts 35°
2026-05-01 13:15 -38.43421 -61.89941 34998 ft 455 kts 35°
2026-05-01 13:16 -38.38246 -61.85292 35001 ft 455 kts 35°
2026-05-01 13:16 -38.33066 -61.80637 35006 ft 455 kts 35°
2026-05-01 13:17 -38.22706 -61.71345 35011 ft 456 kts 35°
2026-05-01 13:18 -38.14920 -61.64385 34999 ft 456 kts 35°
2026-05-01 13:18 -38.09723 -61.59748 35007 ft 457 kts 35°
2026-05-01 13:19 -38.04525 -61.55119 35004 ft 457 kts 35°
2026-05-01 13:20 -37.96716 -61.48179 34999 ft 457 kts 34°
2026-05-01 13:20 -37.91507 -61.43567 35000 ft 457 kts 34°
2026-05-01 13:21 -37.83684 -61.36655 35004 ft 456 kts 34°
2026-05-01 13:21 -37.78510 -61.32092 34999 ft 456 kts 34°
2026-05-01 13:22 -37.73308 -61.27511 35005 ft 456 kts 34°
2026-05-01 13:22 -37.68103 -61.22936 35000 ft 456 kts 34°
2026-05-01 13:23 -37.62901 -61.18371 34999 ft 455 kts 34°
2026-05-01 13:23 -37.57699 -61.13814 35004 ft 455 kts 34°
2026-05-01 13:24 -37.52497 -61.09265 35002 ft 455 kts 34°
2026-05-01 13:25 -37.44693 -61.02456 34999 ft 455 kts 34°
2026-05-01 13:25 -37.39493 -60.97929 35002 ft 455 kts 34°
2026-05-01 13:26 -37.34288 -60.93404 35003 ft 455 kts 34°
2026-05-01 13:26 -37.29081 -60.88886 35000 ft 455 kts 34°
2026-05-01 13:27 -37.23872 -60.84374 35007 ft 455 kts 34°
2026-05-01 13:27 -37.16057 -60.77619 35001 ft 455 kts 34°
2026-05-01 13:28 -37.08237 -60.70876 35000 ft 455 kts 34°
2026-05-01 13:29 -36.97834 -60.61934 35003 ft 455 kts 34°
2026-05-01 13:31 -36.82200 -60.48549 34999 ft 455 kts 34°
2026-05-01 13:32 -36.70009 -60.38159 34999 ft 455 kts 34°
2026-05-01 13:33 -36.56913 -60.27049 34144 ft 451 kts 34°
2026-05-01 13:34 -36.51788 -60.22712 33261 ft 440 kts 34°
2026-05-01 13:34 -36.46769 -60.18491 32403 ft 430 kts 34°
2026-05-01 13:35 -36.41855 -60.14376 31567 ft 422 kts 34°
2026-05-01 13:35 -36.39433 -60.12351 31148 ft 418 kts 34°
2026-05-01 13:35 -36.34680 -60.08376 30347 ft 410 kts 34°
2026-05-01 13:36 -36.32321 -60.06405 29947 ft 407 kts 34°
2026-05-01 13:36 -36.29983 -60.04452 29539 ft 403 kts 33°
2026-05-01 13:36 -36.25394 -60.00624 28731 ft 396 kts 33°
2026-05-01 13:37 -36.23121 -59.98729 28327 ft 393 kts 33°
2026-05-01 13:37 -36.20861 -59.96847 27925 ft 390 kts 33°
2026-05-01 13:37 -36.18621 -59.94983 27524 ft 387 kts 33°
2026-05-01 13:37 -36.16397 -59.93134 27127 ft 384 kts 33°
2026-05-01 13:38 -36.12003 -59.89484 26345 ft 378 kts 33°
2026-05-01 13:38 -36.09827 -59.87678 25948 ft 375 kts 33°
2026-05-01 13:38 -36.07668 -59.85888 25563 ft 372 kts 33°
2026-05-01 13:39 -36.05523 -59.84110 25177 ft 370 kts 33°
2026-05-01 13:39 -36.03395 -59.82347 24795 ft 367 kts 33°
2026-05-01 13:39 -36.01279 -59.80596 24413 ft 365 kts 33°
2026-05-01 13:39 -35.99175 -59.78856 24034 ft 363 kts 33°
2026-05-01 13:40 -35.97087 -59.77130 23658 ft 360 kts 33°
2026-05-01 13:40 -35.95011 -59.75415 23283 ft 358 kts 33°
2026-05-01 13:40 -35.92947 -59.73711 22904 ft 356 kts 33°
2026-05-01 13:40 -35.90896 -59.72019 22537 ft 354 kts 33°
2026-05-01 13:41 -35.88857 -59.70338 22169 ft 352 kts 33°
2026-05-01 13:41 -35.86830 -59.68667 21801 ft 349 kts 33°
2026-05-01 13:41 -35.84814 -59.67007 21432 ft 347 kts 33°
2026-05-01 13:41 -35.82807 -59.65356 21071 ft 347 kts 33°
2026-05-01 13:42 -35.80825 -59.63726 20714 ft 347 kts 33°
2026-05-01 13:42 -35.78807 -59.62067 20357 ft 353 kts 33°
2026-05-01 13:42 -35.76744 -59.60373 19985 ft 359 kts 33°
2026-05-01 13:42 -35.74673 -59.58673 19597 ft 357 kts 33°
2026-05-01 13:43 -35.72618 -59.56987 19217 ft 353 kts 33°
2026-05-01 13:43 -35.70583 -59.55318 18843 ft 350 kts 33°
2026-05-01 13:43 -35.68560 -59.53661 18472 ft 347 kts 33°
2026-05-01 13:43 -35.66558 -59.52021 18107 ft 345 kts 33°
2026-05-01 13:44 -35.64569 -59.50392 17743 ft 342 kts 33°
2026-05-01 13:44 -35.62594 -59.48778 17381 ft 340 kts 33°
2026-05-01 13:44 -35.60726 -59.47251 17038 ft 337 kts 33°
2026-05-01 13:44 -35.58780 -59.45660 16683 ft 335 kts 33°
2026-05-01 13:45 -35.56845 -59.44080 16325 ft 332 kts 33°
2026-05-01 13:45 -35.54926 -59.42515 15974 ft 330 kts 33°
2026-05-01 13:45 -35.53018 -59.40957 15623 ft 328 kts 33°
2026-05-01 13:45 -35.51123 -59.39413 15274 ft 326 kts 33°
2026-05-01 13:46 -35.49239 -59.37877 14926 ft 324 kts 33°
2026-05-01 13:46 -35.47362 -59.36350 14580 ft 322 kts 33°
2026-05-01 13:46 -35.45502 -59.34828 14236 ft 321 kts 34°
2026-05-01 13:46 -35.43697 -59.33237 13893 ft 319 kts 36°
2026-05-01 13:47 -35.41931 -59.31603 13556 ft 317 kts 37°
2026-05-01 13:47 -35.40184 -59.29965 13215 ft 315 kts 37°
2026-05-01 13:47 -35.38444 -59.28334 12877 ft 314 kts 37°
2026-05-01 13:47 -35.36714 -59.26719 12544 ft 312 kts 37°
2026-05-01 13:48 -35.34989 -59.25114 12207 ft 311 kts 37°
2026-05-01 13:48 -35.33270 -59.23520 11869 ft 309 kts 37°
2026-05-01 13:48 -35.31563 -59.21941 11537 ft 308 kts 37°
2026-05-01 13:48 -35.29857 -59.20367 11198 ft 306 kts 37°
2026-05-01 13:49 -35.28159 -59.18801 10875 ft 305 kts 37°
2026-05-01 13:49 -35.26466 -59.17241 10540 ft 304 kts 37°
2026-05-01 13:49 -35.24793 -59.15701 10385 ft 297 kts 37°
2026-05-01 13:49 -35.23220 -59.14254 10246 ft 290 kts 37°
2026-05-01 13:50 -35.21626 -59.12789 10116 ft 283 kts 37°
2026-05-01 13:50 -35.20073 -59.11361 9985 ft 276 kts 37°
2026-05-01 13:50 -35.18536 -59.09950 9711 ft 276 kts 37°
2026-05-01 13:50 -35.17001 -59.08542 9441 ft 275 kts 37°
2026-05-01 13:51 -35.15570 -59.07229 9181 ft 275 kts 37°
2026-05-01 13:51 -35.14009 -59.05799 8891 ft 275 kts 37°
2026-05-01 13:51 -35.12481 -59.04399 8611 ft 275 kts 37°
2026-05-01 13:51 -35.10951 -59.02997 8332 ft 275 kts 36°
2026-05-01 13:52 -35.09423 -59.01598 8039 ft 275 kts 36°
2026-05-01 13:52 -35.07891 -59.00196 7758 ft 275 kts 36°
2026-05-01 13:52 -35.06361 -58.98796 7471 ft 275 kts 36°
2026-05-01 13:52 -35.04833 -58.97400 7184 ft 275 kts 36°
2026-05-01 13:53 -35.03303 -58.96001 6896 ft 275 kts 36°
2026-05-01 13:53 -35.00250 -58.93213 6328 ft 274 kts 36°
2026-05-01 13:53 -34.98728 -58.91824 6044 ft 273 kts 36°
2026-05-01 13:54 -34.97288 -58.90510 5766 ft 273 kts 36°
2026-05-01 13:54 -34.95769 -58.89125 5487 ft 272 kts 36°
2026-05-01 13:54 -34.94251 -58.87742 5208 ft 273 kts 36°
2026-05-01 13:54 -34.92729 -58.86357 4901 ft 272 kts 36°
2026-05-01 13:55 -34.91214 -58.84977 4637 ft 272 kts 36°
2026-05-01 13:55 -34.89694 -58.83593 4338 ft 272 kts 36°
2026-05-01 13:55 -34.88190 -58.82224 4191 ft 266 kts 36°
2026-05-01 13:55 -34.86768 -58.80931 4065 ft 261 kts 36°
2026-05-01 13:56 -34.85332 -58.79625 3944 ft 253 kts 36°
2026-05-01 13:56 -34.83954 -58.78373 3805 ft 242 kts 36°
2026-05-01 13:56 -34.82625 -58.77166 3577 ft 234 kts 36°
2026-05-01 13:56 -34.81349 -58.76009 3349 ft 224 kts 36°
2026-05-01 13:57 -34.80117 -58.74893 3104 ft 218 kts 36°
2026-05-01 13:57 -34.79351 -58.74130 2926 ft 213 kts 47°
2026-05-01 13:57 -34.78850 -58.71969 2640 ft 197 kts 101°
2026-05-01 13:57 -34.79187 -58.70411 2454 ft 185 kts 105°
2026-05-01 13:58 -34.79495 -58.68922 2220 ft 180 kts 103°
2026-05-01 13:58 -34.79750 -58.67472 2009 ft 172 kts 102°
2026-05-01 13:58 -34.79991 -58.66088 1780 ft 163 kts 102°
2026-05-01 13:58 -34.80227 -58.64749 1578 ft 161 kts 102°
2026-05-01 13:59 -34.80462 -58.63423 1357 ft 160 kts 102°
2026-05-01 13:59 -34.80697 -58.62107 1182 ft 158 kts 102°
2026-05-01 13:59 -34.80926 -58.60823 1006 ft 155 kts 102°
2026-05-01 13:59 -34.81155 -58.59546 786 ft 154 kts 102°
2026-05-01 14:00 -34.81381 -58.58284 586 ft 154 kts 102°
2026-05-01 14:00 -34.81609 -58.57013 390 ft 154 kts 102°
2026-05-01 14:00 -34.81837 -58.55747 196 ft 152 kts 102°
2026-05-01 14:00 -34.82055 -58.54519 67 ft 143 kts 102°
2026-05-01 14:01 -34.82218 -58.53574 74 ft 42 kts 102°
2026-05-01 14:01 -34.82204 -58.53463 71 ft 9 kts
2026-05-01 14:01 -34.82167 -58.53485 72 ft 2 kts 331°
2026-05-01 14:01 -34.82157 -58.53492 71 ft 2 kts 331°